Location: Slanting_Bridge
(35.6330°N, 80.9830°W)
Time: 16:04:34
(UTC-04:00)

Amateur Radio Satellites - All Passes

Search period start: 30 March 2015 15:34
Search period end: 31 March 2015 15:34
Location: Slanting_Bridge, 35.6330°N, 80.9830°W

Satellite Date Start Highest point End Downlink Frequencies (MHz)
Time Altitude Azimuth
SWISSCUBE 30 Mar 15:35:49 15:40:19 41° 287° (WNW) 15:44:45 437.505
BEESAT 30 Mar 15:38:33 15:43:04 42° 288° (WNW) 15:47:32 436.000
ITAMSAT 1 30 Mar 15:51:27 15:56:02 30° 264° (W) 16:00:33 435.822/435.867
STARS 30 Mar 15:58:00 16:02:00 34° 97° (E) 16:06:02 437.465
JAS-2 30 Mar 15:59:32 16:05:35 35° 67° (ENE) 16:12:18 435.910
PCSat 30 Mar 16:09:03 16:13:52 31° 305° (NW) 16:18:38 145.827
SRMSAT 30 Mar 16:14:01 16:17:17 15° 172° (S) 16:20:34 437.500
YUBILEINY 30 Mar 16:19:53 16:26:30 22° 294° (WNW) 16:32:44 435.215
ITUPSAT 1 30 Mar 16:27:47 16:30:27 14° 294° (WNW) 16:32:52 437.325
HORYU 2 30 Mar 16:36:55 16:41:13 50° 260° (W) 16:45:33 437.375
AO-7 30 Mar 16:39:17 16:47:37 88° 71° (ENE) 16:55:57 29.400- 29.500
AIST 1 30 Mar 16:50:31 16:54:12 27° 269° (W) 16:57:45
Gurwin Techsat 1B 30 Mar 16:51:20 16:52:29 10° 272° (W) 16:53:13 435.225
JUGNU 30 Mar 17:00:42 17:04:14 16° 186° (S) 17:07:43 437.505
KKS-1 30 Mar 17:05:31 17:09:10 25° 290° (WNW) 17:12:45 437.445
MOZHAYETS 4 30 Mar 17:12:35 17:15:51 19° 93° (E) 17:19:16
STARS 30 Mar 17:35:08 17:38:15 19° 291° (WNW) 17:41:15 437.465
JAS-2 30 Mar 17:44:03 17:50:27 42° 265° (W) 17:57:28 435.910
M-CUBED/EXP-1 PRIME 30 Mar 18:00:10 18:03:42 21° 97° (E) 18:07:16 437.505
SRMSAT 30 Mar 18:02:02 18:05:44 17° 182° (S) 18:09:24 437.500
SO-50 30 Mar 18:03:05 18:05:28 15° 109° (ESE) 18:08:07 436.795
CUTE-I 30 Mar 18:21:00 18:25:53 38° 71° (ENE) 18:30:50 437.470
Cubesat XI-IV 30 Mar 18:21:31 18:26:27 39° 71° (ENE) 18:31:26 437.490
AO-7 30 Mar 18:36:36 18:41:31 16° 270° (W) 18:45:51 29.400- 29.500
GONETS M04 30 Mar 18:41:21 18:46:46 20° 82° (E) 18:52:41
BEESAT 2 30 Mar 18:44:28 18:46:14 13° 45° (NE) 18:48:09 435.950
MOZHAYETS 4 30 Mar 18:48:58 18:53:13 34° 288° (WNW) 18:57:22
CUBESAT XI-V 30 Mar 19:02:58 19:06:28 22° 93° (E) 19:10:05 437.345
RS-15 30 Mar 19:04:40 19:15:06 56° 112° (ESE) 19:25:44 29.354- 29.394
AUBIESAT-1 30 Mar 19:08:19 19:13:11 81° 287° (WNW) 19:17:49 437.475
BEESAT 3 30 Mar 19:18:36 19:22:16 31° 54° (NE) 19:25:55 437.485
PRISM 30 Mar 19:19:21 19:22:39 23° 95° (E) 19:26:01 437.425
M-CUBED/EXP-1 PRIME 30 Mar 19:34:11 19:38:42 39° 293° (WNW) 19:43:03 437.505
SO-50 30 Mar 19:41:06 19:45:35 52° 304° (WNW) 19:50:15 436.795
SRMSAT 30 Mar 19:51:56 19:54:10 12° 192° (SSW) 19:56:18 437.500
CUTE-I 30 Mar 20:01:48 20:06:06 23° 266° (W) 20:10:15 437.470
Cubesat XI-IV 30 Mar 20:02:27 20:06:42 23° 266° (W) 20:10:49 437.490
AIST 2 30 Mar 20:02:40 20:06:17 27° 52° (NE) 20:09:55 435.215
BEESAT 2 30 Mar 20:20:45 20:24:50 61° 243° (WSW) 20:28:50 435.950
STRAND 1 30 Mar 20:20:48 20:25:55 77° 103° (ESE) 20:31:00 437.568
GONETS M04 30 Mar 20:34:07 20:42:48 75° 279° (W) 20:51:33
CANX-2 30 Mar 20:37:35 20:40:50 22° 71° (ENE) 20:44:13 2200.000
CUBESAT XI-V 30 Mar 20:39:54 20:43:58 30° 288° (WNW) 20:47:57 437.345
BRITE-PL 30 Mar 20:44:10 20:48:45 50° 75° (ENE) 20:53:02 437.365/2234.400
CUSAT 1 30 Mar 20:45:07 20:46:10 12° 95° (E) 20:47:19 437.405
CUTE 1.7 + AOD 2 30 Mar 20:50:54 20:54:32 29° 72° (ENE) 20:58:14 437.475
HO-68 30 Mar 20:52:44 20:59:37 54° 70° (ENE) 21:06:35 435.675
PRISM 30 Mar 20:54:43 20:58:06 23° 290° (WNW) 21:01:21 437.425
BEESAT 3 30 Mar 20:57:09 21:00:08 19° 249° (WSW) 21:02:59 437.485
DOVE 4 30 Mar 21:06:34 21:10:30 35° 74° (ENE) 21:14:21 437.250
AAUSAT CUBESAT 2 30 Mar 21:10:12 21:13:43 28° 72° (ENE) 21:17:19 437.432
SEEDS 30 Mar 21:17:35 21:21:38 50° 75° (ENE) 21:25:46 437.485
RS-15 30 Mar 21:17:48 21:27:54 40° 314° (NW) 21:38:04 29.354- 29.394
GOMX 1 30 Mar 21:23:52 21:28:24 90° 81° (E) 21:32:43 467.674
COMPASS 1 30 Mar 21:37:46 21:41:55 72° 77° (ENE) 21:46:08 437.405
DANDE 30 Mar 21:41:07 21:44:20 76° 97° (E) 21:47:03 436.750
AIST 2 30 Mar 21:41:22 21:44:48 24° 248° (WSW) 21:48:06 435.215
Oscar 11 30 Mar 21:45:40 21:49:32 33° 72° (ENE) 21:53:27 145.826/435.025
FUNcube-1 30 Mar 21:59:46 22:02:59 23° 71° (ENE) 22:06:18 145.935
STRAND 1 30 Mar 22:02:47 22:04:32 11° 296° (WNW) 22:05:59 437.568
UWE-3 30 Mar 22:07:14 22:11:00 36° 73° (ENE) 22:14:50 435.000/436.395/437.385
ISS 30 Mar 22:11:17 22:14:19 37° 134° (SE) 22:17:23 145.825
CINEMA 3 30 Mar 22:12:35 22:16:47 76° 258° (WSW) 22:20:57 145.822/145.860
ZACube-1 30 Mar 22:12:41 22:16:22 33° 73° (ENE) 22:20:08 437.345
CANX-2 30 Mar 22:13:08 22:16:41 25° 265° (W) 22:20:11 2200.000
CUBEBUG 2 30 Mar 22:15:00 22:19:04 56° 75° (ENE) 22:23:08 437.445
DELFI C3 30 Mar 22:15:44 22:19:42 58° 76° (ENE) 22:23:44 145.870
VELOX 1 30 Mar 22:16:46 22:18:35 13° 67° (ENE) 22:20:38 145.980
AISAT 30 Mar 22:21:27 22:23:52 15° 68° (ENE) 22:26:28 437.250
BRITE-PL 30 Mar 22:25:21 22:27:33 13° 268° (W) 22:29:25 437.365/2234.400
CUTE 1.7 + AOD 2 30 Mar 22:27:21 22:30:30 19° 267° (W) 22:33:32 437.475
CUSAT 1 30 Mar 22:28:00 22:28:54 11° 285° (WNW) 22:29:40 437.405
GONETS M04 30 Mar 22:38:03 22:41:33 12° 301° (WNW) 22:44:18
HO-68 30 Mar 22:41:54 22:47:43 25° 266° (W) 22:53:20 435.675
DOVE 4 30 Mar 22:45:42 22:48:26 16° 267° (W) 22:50:56 437.250
AAUSAT CUBESAT 2 30 Mar 22:46:16 22:49:23 20° 267° (W) 22:52:24 437.432
HUMSAT D 30 Mar 22:51:47 22:55:42 46° 75° (ENE) 22:59:40 437.325/437.525
UKube-1 30 Mar 22:52:08 22:56:28 77° 75° (ENE) 23:00:50 .
ESTCUBE 1 30 Mar 22:55:17 22:58:13 18° 68° (ENE) 23:01:20 437.505/2401.250
SEEDS 30 Mar 22:56:32 22:57:50 11° 271° (W) 22:58:52 437.485
DX 1 30 Mar 23:04:19 23:08:40 72° 258° (WSW) 23:13:02 434.975-435.025
ANTELSAT 30 Mar 23:08:12 23:11:35 21° 93° (E) 23:15:09 437.575/2403.000
PCSat 30 Mar 23:17:16 23:20:24 16° 47° (NE) 23:23:45 145.827
50 SAT 30 Mar 23:21:01 23:24:53 70° 77° (ENE) 23:28:49 437.505
Oscar 11 30 Mar 23:22:53 23:25:51 17° 268° (W) 23:28:39 145.826/435.025
POPSAT HIP 1 30 Mar 23:32:39 23:35:23 17° 93° (E) 23:38:16 437.405
FUNcube-1 30 Mar 23:35:55 23:39:17 23° 266° (W) 23:42:35 145.935
RS-15 30 Mar 23:39:16 23:44:48 14° 346° (NNW) 23:50:09 29.354- 29.394
NANOSAT C BR1 30 Mar 23:42:11 23:45:28 22° 95° (E) 23:48:50 145.865
UWE-3 30 Mar 23:45:21 23:47:46 15° 268° (W) 23:49:59 435.000/436.395/437.385
CUBEBUG 1 30 Mar 23:45:59 23:50:18 57° 75° (ENE) 23:54:38 437.445
POLYITAN 1 30 Mar 23:47:34 23:51:08 26° 96° (E) 23:54:48 437.675
ISS 30 Mar 23:48:18 23:50:50 20° 329° (NNW) 23:53:20 145.825
ZACube-1 30 Mar 23:50:16 23:52:54 16° 268° (W) 23:55:23 437.345
VELOX 1 30 Mar 23:50:25 23:54:46 53° 260° (W) 23:59:07 145.980
SPROUT 30 Mar 23:51:14 23:53:38 15° 69° (ENE) 23:56:12 437.525
AISAT 30 Mar 23:55:54 00:00:09 44° 261° (W) 00:04:24 437.250
UNISAT 6 31 Mar 00:03:14 00:07:51 86° 97° (E) 00:12:33 437.425
TIGRISAT 31 Mar 00:12:47 00:17:23 76° 284° (WNW) 00:22:02 435.000
QB50P1 31 Mar 00:23:24 00:27:39 73° 103° (ESE) 00:31:52 145.935-145.965
DUCHIFAT 1 31 Mar 00:24:21 00:28:35 73° 101° (ESE) 00:32:47 145.980
HUMSAT D 31 Mar 00:30:34 00:31:50 11° 270° (W) 00:32:49 437.325/437.525
ESTCUBE 1 31 Mar 00:30:35 00:34:51 38° 262° (W) 00:39:06 437.505/2401.250
YUBILEINY 31 Mar 00:34:39 00:42:02 30° 71° (ENE) 00:49:36 435.215
QB50P2 31 Mar 00:38:48 00:43:02 71° 284° (WNW) 00:47:16 145.880/145.840
ANTELSAT 31 Mar 00:44:18 00:48:27 33° 288° (WNW) 00:52:37 437.575/2403.000
BUGSAT 1 31 Mar 00:58:16 01:02:14 58° 285° (WNW) 01:06:11 437.445
PCSat 31 Mar 00:59:03 01:04:28 73° 246° (WSW) 01:09:51 145.827
SWISSCUBE 31 Mar 01:03:42 01:06:23 16° 67° (ENE) 01:09:17 437.505
BEESAT 31 Mar 01:06:29 01:09:04 15° 67° (ENE) 01:11:53 436.000
POPSAT HIP 1 31 Mar 01:07:35 01:11:24 33° 287° (WNW) 01:15:10 437.405
TISAT 1 31 Mar 01:08:56 01:13:09 75° 258° (WSW) 01:17:22 437.305
NANOSAT C BR1 31 Mar 01:17:47 01:21:18 25° 289° (WNW) 01:24:44 145.865
POLYITAN 1 31 Mar 01:23:39 01:26:58 22° 290° (WNW) 01:30:10 437.675
SPROUT 31 Mar 01:25:23 01:29:26 40° 262° (W) 01:33:28 437.525
CUBEBUG 1 31 Mar 01:26:05 01:27:06 10° 270° (W) 01:27:49 437.445
ITUPSAT 1 31 Mar 01:52:11 01:56:45 45° 73° (ENE) 02:01:21 437.325
RS-15 31 Mar 01:57:08 02:03:49 17° 22° (NNE) 02:11:05 29.354- 29.394
KKS-1 31 Mar 02:25:15 02:28:03 17° 68° (ENE) 02:31:01 437.445
ITAMSAT 1 31 Mar 02:29:49 02:31:37 12° 89° (E) 02:33:46 435.822/435.867
YUBILEINY 31 Mar 02:30:48 02:39:16 53° 269° (W) 02:47:36 435.215
SWISSCUBE 31 Mar 02:39:12 02:43:52 50° 260° (W) 02:48:34 437.505
BEESAT 31 Mar 02:41:52 02:46:33 51° 261° (W) 02:51:14 436.000
STARS 31 Mar 02:52:50 02:56:06 22° 70° (ENE) 02:59:29 437.465
Oscar 19 31 Mar 02:57:14 03:02:26 86° 103° (ESE) 03:07:39 437.125/150
Gurwin Techsat 1B 31 Mar 03:26:00 03:30:55 39° 97° (E) 03:35:53 435.225
ITUPSAT 1 31 Mar 03:31:49 03:34:54 16° 268° (W) 03:37:48 437.325
AIST 1 31 Mar 03:40:58 03:43:07 14° 88° (E) 03:45:30
O/OREOS (USA 219) 31 Mar 03:55:58 04:00:10 37° 105° (ESE) 04:04:26 437.305
KKS-1 31 Mar 04:00:19 04:04:27 37° 262° (W) 04:08:34 437.445
VERMONT LUNAR 31 Mar 04:06:18 04:08:39 18° 146° (SE) 04:11:03 437.305
ITAMSAT 1 31 Mar 04:06:33 04:11:41 66° 286° (WNW) 04:16:48 435.822/435.867
RS-15 31 Mar 04:08:49 04:19:56 53° 51° (NE) 04:31:37 29.354- 29.394
MOZHAYETS 4 31 Mar 04:12:55 04:15:09 14° 67° (ENE) 04:17:39
SO-50 31 Mar 04:15:10 04:20:06 63° 58° (ENE) 04:24:57 436.795
STARS 31 Mar 04:28:38 04:32:26 28° 264° (W) 04:36:13 437.465
HORYU 2 31 Mar 04:31:11 04:35:23 38° 98° (E) 04:39:36 437.375
Oscar 19 31 Mar 04:40:10 04:41:10 10° 297° (WNW) 04:41:51 437.125/150
ISS 31 Mar 04:41:39 04:43:47 16° 28° (NNE) 04:45:57 145.825
AO-7 31 Mar 04:44:43 04:52:05 36° 97° (E) 04:59:36 29.400- 29.500
M-CUBED/EXP-1 PRIME 31 Mar 04:46:57 04:49:19 16° 62° (ENE) 04:51:58 437.505
JAS-2 31 Mar 04:57:04 05:04:05 40° 94° (E) 05:10:33 435.910
PHONESAT 2.4 31 Mar 05:00:57 05:03:38 21° 146° (SE) 05:06:21 2401.200-2431.200
Gurwin Techsat 1B 31 Mar 05:06:32 05:10:42 23° 292° (WNW) 05:14:43 435.225
AIST 1 31 Mar 05:16:19 05:20:28 40° 281° (W) 05:24:37
O/OREOS (USA 219) 31 Mar 05:36:27 05:39:46 19° 301° (WNW) 05:42:58 437.305
VERMONT LUNAR 31 Mar 05:42:43 05:46:04 83° 339° (NNW) 05:49:26 437.305
MOZHAYETS 4 31 Mar 05:47:30 05:52:00 52° 261° (W) 05:56:32
AUBIESAT-1 31 Mar 05:53:40 05:57:40 81° 70° (ENE) 06:02:03 437.475
SO-50 31 Mar 05:57:44 06:00:11 13° 251° (WSW) 06:02:21 436.795
CUBESAT XI-V 31 Mar 06:04:20 06:07:11 17° 68° (ENE) 06:10:14 437.345
PRISM 31 Mar 06:08:22 06:10:12 13° 67° (ENE) 06:12:16 437.425
HORYU 2 31 Mar 06:08:42 06:11:47 18° 292° (WNW) 06:14:42 437.375
ISS 31 Mar 06:17:16 06:20:26 54° 225° (SW) 06:23:34 145.825
M-CUBED/EXP-1 PRIME 31 Mar 06:20:04 06:23:50 41° 258° (WSW) 06:27:55 437.505
RS-15 31 Mar 06:21:32 06:32:20 44° 250° (WSW) 06:43:18 29.354- 29.394
AO-7 31 Mar 06:37:13 06:45:02 46° 294° (WNW) 06:52:46 29.400- 29.500
PHONESAT 2.4 31 Mar 06:38:12 06:41:44 79° 338° (NNW) 06:45:16 2401.200-2431.200
CUTE-I 31 Mar 06:41:55 06:45:31 19° 92° (E) 06:49:18 437.470
JAS-2 31 Mar 06:42:05 06:49:02 37° 293° (WNW) 06:55:19 435.910
Cubesat XI-IV 31 Mar 06:42:36 06:46:17 19° 92° (E) 06:50:09 437.490
GONETS M04 31 Mar 06:48:08 06:56:34 49° 77° (ENE) 07:05:05
VERMONT LUNAR 31 Mar 07:20:54 07:24:00 35° 355° (N) 07:27:08 437.305
CUSAT 1 31 Mar 07:21:23 07:24:20 16° 75° (ENE) 07:28:01 437.405
STRAND 1 31 Mar 07:33:36 07:38:44 81° 76° (ENE) 07:43:55 437.568
CUBESAT XI-V 31 Mar 07:39:49 07:44:19 44° 262° (W) 07:48:49 437.345
PRISM 31 Mar 07:41:16 07:45:20 46° 261° (W) 07:49:25 437.425
PHONESAT 2.4 31 Mar 08:17:02 08:20:20 36° 356° (N) 08:23:39 2401.200-2431.200
CUTE-I 31 Mar 08:20:48 08:25:52 46° 288° (WNW) 08:30:54 437.470
DANDE 31 Mar 08:21:03 08:25:18 47° 80° (E) 08:31:01 436.750
Cubesat XI-IV 31 Mar 08:21:35 08:26:39 44° 288° (WNW) 08:31:39 437.490
GONETS M04 31 Mar 08:45:32 08:53:09 33° 273° (W) 09:00:32
BRITE-PL 31 Mar 08:52:15 08:55:08 18° 94° (E) 08:58:17 437.365/2234.400
VERMONT LUNAR 31 Mar 08:58:51 09:02:05 44° 13° (NNE) 09:05:19 437.305
CUSAT 1 31 Mar 09:02:27 09:07:04 50° 263° (W) 09:13:08 437.405
SEEDS 31 Mar 09:07:44 09:08:32 11° 89° (E) 09:09:38 437.485
DOVE 4 31 Mar 09:09:42 09:11:19 12° 91° (E) 09:13:15 437.250
BEESAT 3 31 Mar 09:11:43 09:12:58 11° 109° (ESE) 09:14:28 437.485
COMPASS 1 31 Mar 09:25:50 09:28:09 15° 91° (E) 09:30:38 437.405
GOMX 1 31 Mar 09:28:20 09:32:10 30° 97° (E) 09:36:15 467.674
PHONESAT 2.4 31 Mar 09:55:37 09:59:03 48° 13° (NNE) 10:02:30 2401.200-2431.200
AIST 2 31 Mar 10:00:26 10:01:43 11° 109° (ESE) 10:03:13 435.215
CANX-2 31 Mar 10:00:34 10:04:52 67° 101° (E) 10:09:09 2200.000
DANDE 31 Mar 10:05:43 10:08:39 15° 264° (W) 10:11:45 436.750
ANTELSAT 31 Mar 10:06:26 10:08:04 12° 67° (ENE) 10:09:56 437.575/2403.000
CUBEBUG 2 31 Mar 10:09:52 10:12:32 16° 92° (E) 10:15:27 437.445
CINEMA 3 31 Mar 10:10:06 10:14:03 31° 97° (E) 10:18:13 145.822/145.860
HO-68 31 Mar 10:10:51 10:18:05 74° 103° (ESE) 10:25:16 435.675
BEESAT 2 31 Mar 10:11:59 10:15:56 51° 116° (ESE) 10:19:59 435.950
CUTE 1.7 + AOD 2 31 Mar 10:14:10 10:18:31 88° 102° (ESE) 10:22:49 437.475
BRITE-PL 31 Mar 10:29:59 10:33:47 31° 287° (WNW) 10:37:42 437.365/2234.400
AAUSAT CUBESAT 2 31 Mar 10:31:01 10:35:16 80° 102° (ESE) 10:39:29 437.432
NANOSAT C BR1 31 Mar 10:33:51 10:35:27 12° 67° (ENE) 10:37:17 145.865
VERMONT LUNAR 31 Mar 10:36:34 10:39:49 48° 207° (SSW) 10:43:04 437.305
POLYITAN 1 31 Mar 10:39:15 10:41:31 15° 69° (ENE) 10:43:57 437.675
SEEDS 31 Mar 10:40:33 10:44:45 53° 285° (WNW) 10:48:54 437.485
UKube-1 31 Mar 10:44:05 10:46:39 16° 93° (E) 10:49:23 .
DOVE 4 31 Mar 10:45:07 10:49:24 52° 284° (WNW) 10:53:55 437.250
BEESAT 3 31 Mar 10:46:39 10:50:38 51° 302° (WNW) 10:54:40 437.485
DX 1 31 Mar 10:56:17 10:59:45 24° 95° (E) 11:03:16 434.975-435.025
UNISAT 6 31 Mar 10:59:39 11:03:45 51° 75° (ENE) 11:07:58 437.425
COMPASS 1 31 Mar 11:00:05 11:04:03 38° 286° (WNW) 11:07:58 437.405
50 SAT 31 Mar 11:04:04 11:05:11 11° 90° (E) 11:06:34 437.505
GOMX 1 31 Mar 11:06:57 11:10:13 20° 289° (WNW) 11:13:28 467.674
TIGRISAT 31 Mar 11:08:50 11:13:02 64° 75° (ENE) 11:17:18 435.000
Oscar 11 31 Mar 11:11:27 11:15:50 77° 283° (WNW) 11:20:11 145.826/435.025
QB50P1 31 Mar 11:13:31 11:17:21 36° 73° (ENE) 11:21:15 145.935-145.965
DUCHIFAT 1 31 Mar 11:14:10 11:18:00 36° 73° (ENE) 11:21:52 145.980
FUNcube-1 31 Mar 11:25:55 11:30:20 77° 101° (ESE) 11:34:51 145.935
QB50P2 31 Mar 11:28:46 11:32:54 57° 75° (ENE) 11:37:03 145.880/145.840
DELFI C3 31 Mar 11:33:27 11:37:26 51° 285° (WNW) 11:41:24 145.870
PHONESAT 2.4 31 Mar 11:34:01 11:37:25 45° 208° (SSW) 11:40:48 2401.200-2431.200
UWE-3 31 Mar 11:35:39 11:40:04 64° 284° (WNW) 11:44:36 435.000/436.395/437.385
AIST 2 31 Mar 11:35:42 11:39:53 55° 302° (WNW) 11:44:07 435.215
ZACube-1 31 Mar 11:39:37 11:44:02 72° 284° (WNW) 11:48:32 437.345
CUBEBUG 1 31 Mar 11:39:46 11:41:40 13° 91° (E) 11:43:47 437.445
ANTELSAT 31 Mar 11:40:20 11:44:28 50° 261° (W) 11:48:41 437.575/2403.000
VELOX 1 31 Mar 11:44:08 11:48:09 35° 98° (E) 11:52:11 145.980
BUGSAT 1 31 Mar 11:45:12 11:49:18 62° 76° (ENE) 11:53:23 437.445
CUBEBUG 2 31 Mar 11:45:13 11:49:26 41° 286° (WNW) 11:53:43 437.445
CINEMA 3 31 Mar 11:47:40 11:51:08 22° 289° (WNW) 11:54:36 145.822/145.860
AISAT 31 Mar 11:49:36 11:53:47 42° 99° (E) 11:57:59 437.250
BEESAT 2 31 Mar 11:52:02 11:54:27 15° 313° (NW) 11:56:43 435.950
POPSAT HIP 1 31 Mar 11:57:01 12:01:12 65° 258° (WSW) 12:05:24 437.405
HO-68 31 Mar 12:00:10 12:05:10 20° 299° (WNW) 12:09:52 435.675
NANOSAT C BR1 31 Mar 12:06:52 12:10:57 48° 260° (W) 12:15:02 145.865
POLYITAN 1 31 Mar 12:13:11 12:17:09 39° 262° (W) 12:21:07 437.675
HUMSAT D 31 Mar 12:14:13 12:18:26 57° 285° (WNW) 12:22:39 437.325/437.525
UKube-1 31 Mar 12:18:58 12:22:59 37° 287° (WNW) 12:26:56 .
ESTCUBE 1 31 Mar 12:26:02 12:30:27 54° 100° (E) 12:34:51 437.505/2401.250
DX 1 31 Mar 12:32:21 12:35:57 25° 290° (WNW) 12:39:27 434.975-435.025
50 SAT 31 Mar 12:36:31 12:40:23 45° 285° (WNW) 12:44:16 437.505
UNISAT 6 31 Mar 12:39:43 12:40:58 11° 271° (W) 12:41:57 437.425
QB50P1 31 Mar 12:50:50 12:53:25 15° 268° (W) 12:55:50 145.935-145.965
DUCHIFAT 1 31 Mar 12:51:25 12:54:00 15° 268° (W) 12:56:26 145.980
TISAT 1 31 Mar 12:57:21 13:00:28 21° 94° (E) 13:03:42 437.305
JUGNU 31 Mar 13:10:44 13:12:37 12° 167° (SSE) 13:14:37 437.505
CUBEBUG 1 31 Mar 13:14:12 13:18:20 44° 286° (WNW) 13:22:26 437.445
SPROUT 31 Mar 13:14:53 13:18:56 41° 98° (E) 13:23:01 437.525
VELOX 1 31 Mar 13:21:27 13:24:30 18° 291° (WNW) 13:27:25 145.980
AISAT 31 Mar 13:27:26 13:30:05 15° 292° (WNW) 13:32:35 437.250
YUBILEINY 31 Mar 13:31:40 13:39:26 38° 88° (E) 13:47:26 435.215
ITAMSAT 1 31 Mar 13:44:45 13:47:37 15° 65° (ENE) 13:50:43 435.822/435.867
PCSat 31 Mar 13:55:51 13:59:52 22° 107° (ESE) 14:04:04 145.827
ITUPSAT 1 31 Mar 13:57:20 13:59:51 15° 91° (E) 14:02:36 437.325
ESTCUBE 1 31 Mar 14:04:50 14:06:55 13° 293° (WNW) 14:08:46 437.505/2401.250
O/OREOS (USA 219) 31 Mar 14:08:43 14:13:04 44° 66° (ENE) 14:17:22 437.305
Oscar 19 31 Mar 14:11:07 14:16:15 89° 275° (W) 14:21:24 437.125/150
TISAT 1 31 Mar 14:32:43 14:36:17 27° 289° (WNW) 14:39:47 437.305
SWISSCUBE 31 Mar 14:42:30 14:47:10 52° 100° (E) 14:51:49 437.505
Gurwin Techsat 1B 31 Mar 14:44:07 14:49:09 47° 73° (ENE) 14:54:15 435.225
BEESAT 31 Mar 14:45:04 14:49:44 51° 100° (E) 14:54:22 436.000
SPROUT 31 Mar 14:52:17 14:54:43 15° 292° (WNW) 14:56:59 437.525
JUGNU 31 Mar 14:57:13 15:00:54 17° 177° (S) 15:04:37 437.505
JAS-2 31 Mar 15:08:15 15:11:28 14° 58° (ENE) 15:15:17 435.910
ITAMSAT 1 31 Mar 15:21:32 15:26:41 59° 259° (W) 15:31:51 435.822/435.867
AIST 1 31 Mar 15:26:37 15:30:32 34° 78° (ENE) 15:34:26
HORYU 2 31 Mar 15:27:11 15:30:45 25° 70° (ENE) 15:34:25 437.375
